{"data":{"norad_id":51863,"intl_designator":"2022-022M","name":"STARLINK-3555","alt_names":[],"object_type":"PAYLOAD","status":"ACTIVE","operator":null,"country":"US","launch_date":"2022-03-03","launch_site_code":"AFETR","launch_vehicle":null,"mission":null,"orbit_class":"UNKNOWN","rcs_meters":null,"size_class":null,"mass_kg":null,"dimensions":null,"purposes":["comms"],"wikipedia_slug":null,"has_3d_model":false,"image_url":null,"decayed_at":null,"tle_current":{"epoch":"2026-05-24T22:46:10.126848Z","epoch_age_seconds":79819,"freshness":"FRESH","line1":"1 51863U 22022M   26144.94872832 -.00000206  00000+0  51399-5 0  9991","line2":"2 51863  53.2155  26.7800 0001322  93.2184 266.8959 15.08833523234624","mean_motion":15.08833523,"eccentricity":0.0001322,"inclination_deg":53.2155,"raan_deg":26.78,"arg_perigee_deg":93.2184,"mean_anomaly_deg":266.8959,"bstar":5.1399e-6,"rev_number":23462,"period_min":95.437964364475,"perigee_km":538.84864022809,"apogee_km":540.67773303743,"semimajor_km":6917.9001866328,"source":"CELESTRAK","updated_at":"2026-05-25T13:38:16.961594Z"}}}